Regional Weather Roundup
Issued by NWS

Home | Current Version | Previous Version | Graphics & Text | Print | Product List | Glossary On
Versions: 1 2 3 4 5 6 7 8 9 10 11 12 13 14 15 16 17 18 19 20 21 22 23 24 25 26 27 28 29 30 31 32 33 34 35 36 37 38 39 40 41 42 43 44 45 46 47 48 49 50
921
ASUS45 KCYS 171810
RWRWY

WYOMING REGIONAL WEATHER ROUNDUP
NATIONAL WEATHER SERVICE CHEYENNE WY
1100 AM MST TUE JAN 17 2017

NOTE:  "FAIR" INDICATES FEW OR NO CLOUDS BELOW 12,000 FEET
WITH NO SIGNIFICANT WEATHER AND/OR OBSTRUCTIONS TO VISIBILITY.

WYZ001-171900-
YELLOWSTONE NATIONAL PARK

CITY           SKY/WX    TMP DP  RH WIND       PRES   REMARKS
LK YELLOWSTONE   N/A      0  -5  79 CALM      30.19F
6HR MIN TEMP: -13; 6HR MAX TEMP:   0;

W YELLOWSTONE  NOT AVBL

$$
WYZ002>013-054>058-071-098>099-171900-
NORTHERN WYOMING

CITY           SKY/WX    TMP DP  RH WIND       PRES   REMARKS
JACKSON        SUNNY      0  -2  92 CALM      30.26F
CODY           FAIR      32   9  38 N6        29.99S WCI  26
GREYBULL       FAIR      -2 -10  69 CALM      30.08F
6HR MIN TEMP: -14; 6HR MAX TEMP:  -1; 6HR PCP: TRACE;

WORLAND        FAIR       5   2  87 W3        30.05F
6HR MIN TEMP: -10; 6HR MAX TEMP:   5;

SHERIDAN       FAIR      23  10  57 SE7       29.90R WCI  15
6HR MIN TEMP:   4; 6HR MAX TEMP:  23;

BUFFALO        FAIR      35  12  38 S8        29.91F WCI  29
6HR MIN TEMP:  27; 6HR MAX TEMP:  38;

GILLETTE       FAIR      36  16  44 SW21      29.91F WCI  25
6HR MIN TEMP:  10; 6HR MAX TEMP:  36;

HULETT         FAIR      32  14  47 W9        29.93S WCI  24
NEWCASTLE      FAIR      23  10  58 CALM      29.99F

$$
WYZ014>020-022>026-101>103-171900-
CENTRAL WYOMING

CITY           SKY/WX    TMP DP  RH WIND       PRES   REMARKS
BIG PINEY      FAIR      -9  -9 100 CALM      30.18R
6HR MIN TEMP: -20; 6HR MAX TEMP:  -9;

PINEDALE       FAIR       0  -6  78 CALM      30.17F
DUBOIS         NOT AVBL
LANDER         FAIR      11   6  81 CALM      30.11R
6HR MIN TEMP:  -2; 6HR MAX TEMP:  11;

RIVERTON       FAIR       8   4  83 SE3       30.12S
6HR MIN TEMP:  -8; 6HR MAX TEMP:   9;

CASPER         FAIR      30   8  39 SW33G46   30.03S WCI  14
6HR MIN TEMP:  18; 6HR MAX TEMP:  31; 6HR PCP: TRACE;

DOUGLAS        FAIR      31  15  52 NW3       30.00F
6HR MIN TEMP:   3; 6HR MAX TEMP:  31;


$$
WYZ021-027>030-104>119-171900-
SOUTHERN WYOMING

CITY           SKY/WX    TMP DP  RH WIND       PRES   REMARKS
EVANSTON       FAIR      11   5  77 S5        30.18R WCI   3
6HR MIN TEMP:   4; 6HR MAX TEMP:  12;

ROCK SPRINGS   FAIR      -3  -5  90 CALM      30.19R
6HR MIN TEMP: -14; 6HR MAX TEMP:  -3;

RAWLINS        FAIR      13   5  70 CALM      30.18R
6HR MIN TEMP:  -7; 6HR MAX TEMP:  14;

LARAMIE        FAIR       4   2  91 NW3       30.08S
6HR MIN TEMP: -10; 6HR MAX TEMP:   8;

CHEYENNE       FAIR      41  17  38 S9        30.01F
6HR MIN TEMP:  11; 6HR MAX TEMP:  41;

TORRINGTON     FAIR      35  16  45 CALM      30.01F
6HR MIN TEMP:   9; 6HR MAX TEMP:  35;


$$




USA.gov is the U.S. government's official web portal to all federal, state and local government web resources and services.